Tracking 19903 objects as of 16-Oct-2019
HD Live streaming from Space Station
objects crossing your sky now

CZ-2C DEB

Track CZ-2C DEB now!
10-day predictions


NORAD ID: 37768
Int'l Code: 2011-039D
Perigee: 692.0 km
Apogee: 907.5 km
Inclination: 98.2 °
Period: 100.7 minutes
Semi major axis: 7170 km
RCS: 0.0872 m2 (small)
Launch date: July 29, 2011
Source: People's Republic of China (PRC)
Launch site: Jiuquan Satellite Launch Center, China (JSC)

Note: This is SATELLITE DEBRIS
aabbcc
Your satellite tracking list
Your tracking list is empty




NASA's NSSDC Master Catalog

Two Line Element Set (TLE):
1 37768U 11039D   19288.94329649 +.00000281 +00000-0 +11223-3 0  9992
2 37768 098.1936 312.1688 0150231 319.7783 104.2312 14.29736781428014
Source of the keplerian elements: AFSPC